STARLINK-1570, 46059

Orbit data source: Space-Track

STARLINK-1570, 46059 is a payload satellite owned by SpaceX/Seattle (US) in LEO that was launched on Fri, 07 Aug 2020 UTC via an FALCON 9 launch vehicle from the Air Force Eastern Test Range (AFETR). Payload-class satellites include a variety of spacecraft equipped with specific instruments for various scientific and technological missions. These include communications satellites like Starlink; space stations such as the ISS; scientific satellites like the Hubble; Earth observation satellites from companies like Planet Labs, Umbra, and HawkEye 360; GPS; miniature CubeSats for education and research; and military/defense satellites.

Loading next visibility...
Identifier
46059, 2020-055AJ
Orbit
LEO
Country
Flag of USUS
Related business
Manufacturer
SpaceX/Seattle
Mission
Operational Commercial Communications
Bus & Motor
STARLINK, Unknown motor
Mass
260 kg wet, ~248 kg dry
Launch date (UTC)
2020-08-07 (5 years ago)
Launch vehicle
FALCON 9
Launch site
Air Force Eastern Test Range (AFETR)
Object type
Payload
Rocket body
Debris
Shape & HBR
Box + 1 Pan, 10.1 m
Radar Cross Section
13.562 m², Large (>1 m²)

Expand to show TLE details & history
Last TLE update: 11 hours ago

TLE from 11 hours ago
0 STARLINK-1570
1 46059U 20055AJ  25291.27564988  .00002923  00000-0  21506-3 0  9997
2 46059  53.0574  35.9411 0001684 108.0043 252.1129 15.06399257287521
Epoch: 2025-10-18T06:36Z
TLE epoch observation values (Epoch: 2025-10-18T06:36:56.149Z)
Latitude
-0.00008°
Longitude
-90.30191°
Altitude
548.452 km
Speed
7.589 km/s
True Right ascension
02h 23m 45s
True Declination
0° 00' 00"
Sunlit
Object was in full shadow at epoch
Visualization orbit readout
Latitude
Unknown
Longitude
Unknown
Altitude
Unknown
Speed
Unknown
Apparent Right ascension
Unknown
Apparent Declination
Unknown
Sunlit
N/A
Visualization observer readout
Local Sidereal Time
12:52:26
Azimuth
Unknown
Elevation
Unknown
Doppler factor
Unknown
Orbital elements
Apogee altitude
548.65 km
Perigee altitude
546.318 km
Semi-major axis
6,925.621 km
Eccentricity
0.00017
Inclination
53.0574°
RAAN
35.9411°
Arg. of periapsis
108.0043°
True anomaly
252.09454°
Mean anomaly
252.1129°
Eccentric anomaly
252.10372°
Mean motion
3.76578 °/min
Orbital period
95.6 mins
BSTAR
0.00021506
Loading maneuver chart data...
Computing Atmospheric mass density...
Loading historical data...
Loading historical data...
Loading historical data...
Loading historical data...
Loading historical data...
Loading historical data...
Loading historical data...

Documentation

Showing up to 5 results
|